Regional Weather Roundup
Issued by NWS

Home | Current Version | Previous Version | Text Only | Print | Product List | Glossary On
Versions: 1 2 3 4 5 6 7 8 9 10 11 12 13 14 15 16 17 18 19 20 21 22 23 24 25 26 27 28 29 30 31 32 33 34 35 36 37 38 39 40 41 42 43 44 45 46 47 48 49 50
000
ASUS43 KTOP 250008
RWRKS

WEATHER ROUNDUP FOR KANSAS
NATIONAL WEATHER SERVICE GOODLAND KS
700 PM CDT WED MAY 24 2017

NOTE:  "FAIR" INDICATES FEW OR NO CLOUDS BELOW 12,000 FEET WITH NO
SIGNIFICANT WEATHER AND/OR OBSTRUCTIONS TO VISIBILITY.

KSZ001>006-013>018-027>032-041>047-250100-
NORTHWEST KANSAS

CITY           SKY/WX    TMP DP  RH WIND       PRES   REMARKS
GOODLAND       SUNNY     75  44  33 S15       29.59F
6HR MIN TEMP:  63; 6HR MAX TEMP:  76;

HAYS           SUNNY     68  42  38 SE9       29.65F
HILL CITY      SUNNY     71  41  33 S7        29.63F
6HR MIN TEMP:  60; 6HR MAX TEMP:  72;

RUSSELL        SUNNY     67  42  40 S3        29.66F
6HR MIN TEMP:  60; 6HR MAX TEMP:  67;

$$

KSZ061>065-074>080-084>089-250100-
SOUTHWEST KANSAS

CITY           SKY/WX    TMP DP  RH WIND       PRES   REMARKS
DODGE CITY     SUNNY     72  45  37 S8        29.66F
6HR MIN TEMP:  63; 6HR MAX TEMP:  73;

ELKHART          N/A     79  42  26 S6          N/A
GARDEN CITY    SUNNY     75  40  28 S12       29.64F
6HR MIN TEMP:  65; 6HR MAX TEMP:  76;

GREAT BEND     SUNNY     68  44  42 SE7       29.67F
LIBERAL        SUNNY     78  48  34 SE9       29.65F
PRATT          SUNNY     66  39  38 SE7       29.68F
6HR MIN TEMP:  58; 6HR MAX TEMP:  66;

$$

KSZ066>073-081>083-090>101-250100-
SOUTHEAST KANSAS

CITY           SKY/WX    TMP DP  RH WIND       PRES   REMARKS
CHANUTE        MOSUNNY   67  45  45 NW13      29.69S
6HR MIN TEMP:  64; 6HR MAX TEMP:  71;

COFFEYVILLE    SUNNY     68  48  48 W10       29.70S
6HR MIN TEMP:  63; 6HR MAX TEMP:  70;

HUTCHINSON     SUNNY     67  43  41 NW6       29.69F
6HR MIN TEMP:  61; 6HR MAX TEMP:  68;

MEDICINE LODGE   N/A     70  41  34 E5        29.67F
NEWTON         SUNNY     64  43  46 VRB5      29.71F
PARSONS        SUNNY     67  45  45 NW13      29.70F
6HR MIN TEMP:  62; 6HR MAX TEMP:  70;

WICHITA INTL   MOSUNNY   66  43  43 CALM      29.70F
6HR MIN TEMP:  61; 6HR MAX TEMP:  68;

WICHITA JABRA  SUNNY     66  43  43 VRB3      29.70F
6HR MIN TEMP:  61; 6HR MAX TEMP:  68;

WICHITA MCCONL SUNNY     66  43  42 NE3       29.70F
WINFIELD       SUNNY     67  44  43 VRB5      29.71F
6HR MIN TEMP:  62; 6HR MAX TEMP:  69;

$$

KSZ007>012-019>026-033>040-048>060-102>105-250100-
NORTHEAST KANSAS

CITY           SKY/WX    TMP DP  RH WIND       PRES   REMARKS
CONCORDIA      SUNNY     65  42  43 CALM      29.69F
6HR MIN TEMP:  60; 6HR MAX TEMP:  67;

EMPORIA        SUNNY     66  47  50 CALM      29.69F
6HR MIN TEMP:  62; 6HR MAX TEMP:  68;

LAWRENCE       PTSUNNY   67  49  52 N5        29.68S
6HR MIN TEMP:  64; 6HR MAX TEMP:  69;

MANHATTAN      SUNNY     66  51  58 CALM      29.69S
6HR MIN TEMP:  63; 6HR MAX TEMP:  70;

MARYSVILLE     PTSUNNY   66  45  45 NW5       29.68F
OLATHE IND     MOSUNNY   61  48  62 N7        29.68S
6HR MIN TEMP:  60; 6HR MAX TEMP:  67;

OLATHE EXE     SUNNY     65  48  54 N10       29.67F
6HR MIN TEMP:  59; 6HR MAX TEMP:  65;

SALINA         SUNNY     68  43  40 VRB3      29.69F
6HR MIN TEMP:  64; 6HR MAX TEMP:  70;

TOPEKA BILLARD CLOUDY    69  48  47 N7        29.68S
6HR MIN TEMP:  64; 6HR MAX TEMP:  69;

TOPEKA FORBES  CLOUDY    68  48  48 N5        29.68S
6HR MIN TEMP:  64; 6HR MAX TEMP:  70;

$$




USA.gov is the U.S. government's official web portal to all federal, state and local government web resources and services.